{"data":{"norad_id":57833,"intl_designator":"2023-139D","name":"YAOGAN-40 01C","alt_names":[],"object_type":"PAYLOAD","status":"ACTIVE","operator":null,"country":"PRC","launch_date":"2023-09-10","launch_site_code":"TAISC","launch_vehicle":null,"mission":null,"orbit_class":"UNKNOWN","rcs_meters":null,"size_class":null,"mass_kg":null,"dimensions":null,"purposes":[],"wikipedia_slug":null,"has_3d_model":false,"image_url":null,"decayed_at":null,"tle_current":{"epoch":"2026-05-25T04:48:12.991104Z","epoch_age_seconds":51783,"freshness":"FRESH","line1":"1 57833U 23139D   26145.20015036  .00000148  00000+0  69965-4 0  9990","line2":"2 57833  85.9902 269.5311 0002511 112.7747 247.3701 14.12444032139569","mean_motion":14.12444032,"eccentricity":0.0002511,"inclination_deg":85.9902,"raan_deg":269.5311,"arg_perigee_deg":112.7747,"mean_anomaly_deg":247.3701,"bstar":6.9965e-5,"rev_number":13956,"period_min":101.95094229404,"perigee_km":849.20508054118,"apogee_km":852.83556334826,"semimajor_km":7229.1573219447,"source":"CELESTRAK","updated_at":"2026-05-25T13:38:00.302740Z"}}}